Regional Weather Roundup
Issued by NWS Northern Indiana

Home | Current Version | Previous Version | Text Only | Print | Product List | Glossary Off
Versions: 1 2 3 4 5 6 7 8 9 10 11 12 13 14 15 16 17 18 19 20 21 22 23 24 25 26 27 28 29 30 31 32 33 34 35 36 37 38 39 40 41 42 43 44 45 46 47 48 49 50

547
ASUS43 KIWX 290410
RWRIWX

KIWX WEATHER ROUNDUP
NATIONAL WEATHER SERVICE NORTHERN INDIANA
1200 AM EDT THU SEP 29 2016

NOTE: "FAIR" INDICATES FEW OR NO CLOUDS BELOW 12,000 FEET WITH NO
SIGNIFICANT WEATHER AND/OR OBSTRUCTIONS TO VISIBILITY.

* THESE STATIONS ARE NOT UNDER NWS QUALITY CONTROL. THEY ALSO MAY NOT
  REPORT WEATHER SUCH AS PRECIPITATION OR FOG.

INZ001>027-290500-
NORTHERN INDIANA

CITY           SKY/WX    TMP DP  RH WIND       PRES   REMARKS
GARY*          CLOUDY    63  55  77 NE12G21   30.05S
VALPARAISO     LGT RAIN  57  52  83 N5        30.03S
MICHIGAN CITY* CLOUDY    57  54  88 MISG      30.04S
LAPORTE*       DRIZZLE   58  57  96 N12       30.03S
KNOX*          CLOUDY    54  37  54 N9        30.01S
SOUTH BEND     LGT RAIN  55  54  96 N12       30.03S
GOSHEN         RAIN      56  53  90 NE10      30.00R FOG
MONTICELLO*    LGT RAIN  54  48  82 N5        30.00S
LOGANSPORT*    CLOUDY    54  52  94 NW6       29.99F
ROCHESTER*     LGT RAIN  55  55 100 N9        29.98F
WARSAW*        RAIN      54  54 100 NE6       29.99S
ANGOLA*          N/A     55  43  62 NE7       29.99S
FORT WAYNE     CLOUDY    54  52  93 NW3       29.98R
HUNTINGTON*    CLOUDY    53  51  95 CALM      29.97S
PERU/GRISSOM   MOCLDY    54  53  95 NW3       29.96F
MARION*        CLOUDY    53  51  94 N3        29.98S

$$
INZ028>050-290500-
CENTRAL INDIANA

CITY           SKY/WX    TMP DP  RH WIND       PRES   REMARKS
KOKOMO*        CLOUDY    54  52  93 NW5       29.99S
MUNCIE*        CLOUDY    55  53  93 NW6       29.97R
INDIANAPOLIS   CLOUDY    55  51  86 NW9       29.98S

$$
MIZ043>046-050>051-056>058-064>065-071>073-077>080-290500-
SOUTHWEST LOWER MICHIGAN

CITY           SKY/WX    TMP DP  RH WIND       PRES   REMARKS
BATTLE CREEK   RAIN      56  55  97 NE9       30.04R FOG
BENTON HARBOR  LGT RAIN  57  53  86 NE6       30.04S
COLDWATER*     LGT RAIN  56  55  97 N9        30.01S
HILLSDALE*     LGT RAIN  55  54  94 N8        29.98F
HOLLAND        CLOUDY    57  51  80 N6        30.07S
GRAND RAPIDS   CLOUDY    56  51  84 NE14      30.07R
KALAMAZOO      LGT RAIN  57  53  86 NE7       30.04R
STURGIS*       LGT RAIN  56  54  93 NE10      30.00F
THREE RIVERS*  LGT RAIN  56  55  95 NE3       30.02F

$$
OHZ001>008-015>018-024>025-290500-
NORTHWEST OHIO

CITY           SKY/WX    TMP DP  RH WIND       PRES   REMARKS
WAUSEON*       LGT RAIN  57  55  94 NE7       29.98R
DEFIANCE       LGT RAIN  58  54  86 NE6       29.98R
FINDLAY        MOCLDY    57  53  86 NW6       29.95F
TOLEDO EXPRESS RAIN      57  57 100 E8        29.99R
TOLEDO METCALF CLOUDY    59  55  87 E7        30.00R
LIMA           FOG       50  50 100 NE3       29.95F VSB 1/4

$$
AND FOR LAKE MICHIGAN COASTAL AND OPEN LAKE BUOY OBSERVATIONS

STATION/POSITION TEMP    WIND        PRES    VSBY  WAVE
                 AIR SEA DIR/SP/G                  HT/PER
                 (F)     (DEG/KT/KT) (MB)    (MI)  (FT/S)
CALUMET HARBOR    62      20/ 16/ 21 1017.1R
MICHIGAN CITY     61      20/ 24/ 26   N/A
BURNS HARBOR      62      50/ 19/ 24 1017.3R
SAINT JOSEPH      58      40/  5/  9 1017.6
SOUTH LAKE BUOY   65 69   40/ 23/ 29 1017.7R         7/ 7
4 MI NW BRIDGMAN  60 65   30/ 16/ 19 1017.4          5/ 6
MICHIGAN CITY     63 66   40/ 21/ 27   N/A           7/ 7

$$
&&




USA.gov is the U.S. government's official web portal to all federal, state and local government web resources and services.